Regional Weather Roundup
Issued by NWS

Home | Current Version | Previous Version | Graphics & Text | Print | Product List | Glossary On
Versions: 1 2 3 4 5 6 7 8 9 10 11 12 13 14 15 16 17 18 19 20 21 22 23 24 25 26 27 28 29 30 31 32 33 34 35 36 37 38 39 40 41 42 43 44 45 46 47 48 49 50
000
ASUS45 KBOU 021510
RWRCO

WEATHER ROUNDUP FOR COLORADO
NATIONAL WEATHER SERVICE DENVER/BOULDER CO
900 AM MDT THU JUL 02 2015

NOTE: "FAIR" INDICATES FEW OR NO CLOUDS BELOW 12000 FEET WITH NO
SIGNIFICANT WEATHER AND/OR OBSTRUCTIONS TO VISIBILITY.

COZ001>005-013-030-031-021600-
...NORTHWEST COLORADO...

CITY           SKY/WX    TMP DP  RH WIND       PRES   REMARKS
CRAIG          MOSUNNY   68  51  54 CALM      30.25R
HAYDEN         MOSUNNY   68  46  45 E5        30.26S
MEEKER         MOSUNNY   66  52  60 CALM      30.25R
MOUNT WERNER   NOT AVBL
STEAMBOAT SPGS SUNNY     62  50  64 CALM      30.28S
WALDEN         MOSUNNY   59  46  63 SE5       30.38F
$$

COZ006>008-011-021600-
...WEST CENTRAL VALLEYS...

CITY           SKY/WX    TMP DP  RH WIND       PRES   REMARKS
GRAND JUNCTION CLOUDY    79  53  40 SE7       30.11R
MONTROSE       PTSUNNY   78  52  40 SE8       30.20S
EAGLE          MOSUNNY   64  52  63 CALM      30.29S
RIFLE          PTSUNNY   72  52  49 VRB3      30.18R
DELTA          PTSUNNY   82  49  32 CALM      30.16S
NUCLA          PTSUNNY   73  54  49 CALM      30.27R
$$

COZ017>023-064>068-021600-
...SOUTHWEST COLORADO...

CITY           SKY/WX    TMP DP  RH WIND       PRES   REMARKS
DURANGO        CLOUDY    67  54  63 W7        30.27R
CORTEZ         SUNNY     68  56  65 CALM      30.23S
PAGOSA SPRINGS CLOUDY    63  55  74 CALM      30.34F
TELLURIDE      CLOUDY    60  54  79 CALM      30.48R
WOLF CREEK PAS NOT AVBL
$$

COZ009-010-012-014-032>034-037-058>063-021600-
...CENTRAL COLORADO...

CITY           SKY/WX    TMP DP  RH WIND       PRES   REMARKS
ASPEN          CLOUDY    64  50  60 N6        30.32S
BUENA VISTA    CLOUDY    62  52  70 W7        30.37R
COPPER MTN     MOSUNNY   59  43  55 W14       30.65R
BERTHOUD PASS  FAIR      43  34  70 N6        30.69R
COTTONWOOD PAS NOT AVBL
GUNNISON       PTSUNNY   63  46  55 CALM      30.40S
KREMMLING      MOSUNNY   64  43  45 CALM      30.35S
LEADVILLE      PTSUNNY   59  46  62 CALM      30.47S
MONARCH PASS   PTSUNNY   50  43  76 SW12      30.75R
SALIDA         PTSUNNY   64  53  69 S3        30.41R
SUNLIGHT       PTSUNNY   61  46  59 CALM      30.59R
WILKERSON PASS   N/A     50  45  81 NE5       30.62R HAZE
$$

COZ069>075-021600-
...SAN LUIS VALLEY/SANGRE DE CRISTO MOUNTAINS...

CITY           SKY/WX    TMP DP  RH WIND       PRES   REMARKS
ALAMOSA        PTSUNNY   62  54  74 CALM      30.34S
LA VETA PASS   PTSUNNY   54  46  76 MISG      30.53R
SAGUACHE       PTSUNNY   63  52  67 NW7       30.37F
$$

COZ035-036-038>040-021600-
...NORTHERN COLORADO FRONT RANGE...

CITY           SKY/WX    TMP DP  RH WIND       PRES   REMARKS
DENVER INTL AP CLOUDY    60  53  77 W13       30.28F
DMNS CITY PARK   N/A     61  54  78 SW7       30.30F
AURORA         CLOUDY    58  53  82 SW8       30.32S
FRONT RANGE AP PTSUNNY   63  55  77 SW6       30.29F
ERIE MUNI ARPT MOSUNNY   64  56  75 S10       30.27F
BOULDER MUN AP CLOUDY    59  57  94 S6        30.28F
CENTENNIAL     CLOUDY    56  52  86 CALM      30.33R
BROOMFIELD     CLOUDY    59  55  88 S9        30.32S
FORT COLLINS   MOSUNNY   66  55  68 S12       30.25F
LONGMONT       MOSUNNY   68  56  65 SW12      30.28F
$$

COZ041-046-047-076>085-087-088-021600-
...PIKES PEAK/PALMER DIVIDE AND SOUTHERN FOOTHILLS...

CITY           SKY/WX    TMP DP  RH WIND       PRES   REMARKS
COLO. SPRINGS  PTSUNNY   61  53  75 NE18      30.31R
A. F. ACADEMY  CLOUDY    57  55  92 N16       30.33R
ELLICOTT       MOSUNNY  N/A N/A N/A NE23G32   30.27R
FALCON         CLOUDY    58  52  80 N17       30.34F
FORT CARSON    NOT AVBL
LIMON          MOSUNNY   64  54  69 NE14      30.25F
MONUMENT HILL  CLOUDY    52  50  93 N12       30.38R
TRINIDAD       PTSUNNY   72  60  66 N13       30.20R
$$

COZ042>045-048>051-090-091-021600-
...NORTHEAST COLORADO...

CITY           SKY/WX    TMP DP  RH WIND       PRES   REMARKS
GREELEY ARPT   MOSUNNY   66  57  72 SW14      30.24F
AKRON          CLOUDY    64  58  80 S10       30.18S
BURLINGTON     SUNNY     71  53  52 NE14      30.16R
WRAY           CLOUDY    68  57  68 S7        30.08F
STERLING       CLOUDY    68  59  73 W13         N/A
HOLYOKE        CLOUDY    70  61  73 CALM      30.10R
FORT MORGAN    CLOUDY    63  56  76 W17G23    30.21R
$$

COZ086-089-092>099-021600-
...SOUTHEAST COLORADO...

CITY           SKY/WX    TMP DP  RH WIND       PRES   REMARKS
PUEBLO         PTSUNNY   71  56  58 NE22G31   30.21R
LA JUNTA       PTSUNNY   71  60  68 NE18      30.15R
LAMAR          PTSUNNY   73  60  63 NE14      30.09R
SPRINGFIELD      N/A     71  64  78 N18       30.13R
$$



USA.gov is the U.S. government's official web portal to all federal, state and local government web resources and services.